Simultaneous Nadir Overpasses (SNOs) Predictions

Prediction of SNOs between NPP and TERRA Satellite Orbit:

Table of predicted SNOs for the next 14.0 days since TLE Epoch: 3/23/2024
Index Date (NPP) Time (NPP) Lat,Lon (NPP) SZA (NPP ) Date (TERRA) Time (TERRA) Lat,Lon (TERRA) SZA (TERRA ) Distance(km) Time Diff (sec)
1 03/23/2024 04:58:28 71.88, 98.93 70.76 03/23/2024 04:58:11 71.88, 98.96 70.75 0.82 17
2 03/23/2024 05:48:54 -71.03, -92.23 110.18 03/23/2024 05:47:47 -71.09, -94.66 109.98 88.13 67
3 03/25/2024 16:10:57 72.00, -69.41 69.91 03/25/2024 16:11:52 71.99, -69.32 69.88 3.41 55
4 03/25/2024 17:01:38 -71.87, 98.16 110.26 03/25/2024 17:01:17 -71.85, 98.10 110.27 2.72 21
5 03/28/2024 04:14:08 -72.00, -70.20 111.09 03/28/2024 04:14:58 -71.97, -70.17 111.13 3.34 50
6 03/28/2024 05:04:52 71.88, 97.33 68.78 03/28/2024 05:04:20 71.89, 97.35 68.78 1.08 32
7 03/30/2024 16:17:21 71.97, -70.96 67.91 03/30/2024 16:18:01 71.95, -70.99 67.88 2.29 40
8 03/30/2024 17:08:03 -71.88, 96.53 112.21 03/30/2024 17:07:25 -71.86, 96.51 112.22 1.85 38
9 04/02/2024 04:20:32 -71.97, -71.77 113.07 04/02/2024 04:21:04 -71.99, -71.74 113.06 1.81 32
10 04/02/2024 05:11:16 71.87, 95.75 66.81 04/02/2024 05:10:27 71.85, 95.70 66.80 2.08 49
11 04/04/2024 16:23:45 71.97, -72.57 65.98 04/04/2024 16:24:05 71.98, -72.53 65.98 1.79 20
12 04/04/2024 17:14:27 -71.88, 94.92 114.15 04/04/2024 17:13:29 -71.89, 94.97 114.13 2.13 58



Historial Predications of SNOs between NPP and TERRA
